Location: Unspecified
(17.6330°N, 0.0000°E)
Time: 14:43:19
(UTC+00:00)

A-11 Canister half - Pass Details

Date: 23 June 2019
Orbit: 1514 x 1685 km, 47.2° (Epoch: 20 July)

Event Time Altitude Azimuth Distance (km) Brightness Sun altitude
Rises 15:20:31 0° 329° (NNW) 4,767 12.1 43.4°
Reaches altitude 10° 15:25:09 10° 348° (NNW) 3,749 11.5 42.4°
Maximum altitude 15:31:03 18° 28° (NNE) 3,137 10.7 41.0°
Drops below altitude 10° 15:36:51 10° 67° (ENE) 3,685 10.7 39.7°
Sets 15:41:18 0° 86° (E) 4,654 11.1 38.7°
